Weather History for KBOW - September, 2011

Change the Weather History Date:

Saturday, September 24, 2011

  Actual Average Record
Temperature  
Mean Temperature 82 °F -  
Max Temperature 96 °F 89 °F 96 °F (2011)
Min Temperature 69 °F 70 °F 57 °F (1972)
Cooling Degree Days 18    
Growing Degree Days 32 (Base 50)    
Moisture  
Dew Point 71 °F    
Average Humidity 53    
Maximum Humidity 74    
Minimum Humidity 37    
Precipitation  
Precipitation 0.00 in - - ()
Sea Level Pressure  
Sea Level Pressure 29.93 in    
Wind  
Wind Speed 2 mph (WNW)    
Max Wind Speed 13 mph    
Max Gust Speed -    
Visibility 8 miles    
Events Fog    
Averages and records for this station are not official NWS values.
T = Trace of Precipitation, MM = Missing Value Source: NWS Daily Summary

Daily Weather History Graph

Daily Weather History Graph

Search for Another Location

Airport or City:

Trip Planner

Search our weather history database for the weather conditions in past years. The results will help you decide how hot, cold, wet, or windy it might be!

Date:

Astronomy

Sep. 24, 2011 Rise Set
Actual Time 7:16 AM EDT 7:21 PM EDT
Civil Twilight 6:53 AM EDT 7:44 PM EDT
Nautical Twilight 6:25 AM EDT 8:12 PM EDT
Astronomical Twilight 5:58 AM EDT 8:39 PM EDT
Moon 4:05 AM EDT (9/24) 5:15 PM EDT (9/24)
Length of Visible Light 12h 51m
Length of Day
12h 05m
Waning Crescent, 11% of the Moon is Illuminated
Sep 24
Waning Crescent
Sep 27
New
Oct 3
First Quarter
Oct 11
Full
Oct 19
Last Quarter

Hourly Weather History & Observations

Time (EDT) Temp. Heat Index Dew Point Humidity Pressure Visibility Wind Dir Wind Speed Gust Speed Precip Events Conditions
12:35 AM 71.6 °F - - N/A% 29.97 in 10.0 mi Calm Calm - N/A   Clear
12:55 AM 71.6 °F - - N/A% 29.96 in 10.0 mi Calm Calm - N/A   Clear
1:15 AM 71.6 °F - - N/A% 29.95 in 10.0 mi Calm Calm - N/A   Clear
1:35 AM 71.6 °F - - N/A% 29.94 in 10.0 mi Calm Calm - N/A   Partly Cloudy
1:55 AM 71.6 °F - - N/A% 29.93 in 10.0 mi Calm Calm - N/A   Partly Cloudy
2:15 AM 71.6 °F - - N/A% 29.93 in 10.0 mi Calm Calm - N/A   Clear
2:35 AM 71.6 °F - - N/A% 29.92 in 10.0 mi Calm Calm - N/A   Clear
2:55 AM 71.6 °F - - N/A% 29.92 in 10.0 mi Calm Calm - N/A   Clear
3:15 AM 71.6 °F - - N/A% 29.92 in 10.0 mi Calm Calm - N/A   Clear
3:35 AM 71.6 °F - - N/A% 29.91 in 10.0 mi Calm Calm - N/A   Clear
3:55 AM 71.6 °F - - N/A% 29.92 in 10.0 mi Calm Calm - N/A   Clear
4:15 AM 71.6 °F - - N/A% 29.92 in 10.0 mi Calm Calm - N/A   Clear
4:35 AM 71.6 °F - - N/A% 29.92 in 10.0 mi Calm Calm - N/A   Clear
4:55 AM 69.8 °F - - N/A% 29.92 in 10.0 mi Calm Calm - N/A   Clear
5:15 AM 71.6 °F - - N/A% 29.92 in 10.0 mi Calm Calm - N/A   Clear
5:35 AM 71.6 °F - - N/A% 29.93 in 10.0 mi Calm Calm - N/A   Partly Cloudy
5:55 AM 71.6 °F - - N/A% 29.93 in 10.0 mi Calm Calm - N/A   Clear
6:15 AM 71.6 °F - - N/A% 29.93 in 10.0 mi Calm Calm - N/A   Clear
6:35 AM 71.6 °F - - N/A% 29.93 in 3.0 mi Calm Calm - N/A   Scattered Clouds
6:55 AM 71.6 °F - - N/A% 29.93 in 0.5 mi Calm Calm - N/A Fog Fog
7:15 AM 71.6 °F - - N/A% 29.93 in 0.2 mi Calm Calm - N/A Fog Fog
7:35 AM 71.6 °F - - N/A% 29.93 in 0.2 mi Calm Calm - N/A Fog Fog
7:55 AM 73.4 °F - - N/A% 29.94 in 0.2 mi Calm Calm - N/A Fog Fog
8:15 AM 73.4 °F - - N/A% 29.94 in 0.2 mi Calm Calm - N/A Fog Fog
8:35 AM 73.4 °F - - N/A% 29.93 in 1.0 mi Calm Calm - N/A   Overcast
8:55 AM 78.8 °F - - N/A% 29.94 in 8.0 mi Calm Calm - N/A   Mostly Cloudy
9:15 AM 78.8 °F - - N/A% 29.94 in 8.0 mi Calm Calm - N/A   Partly Cloudy
9:35 AM 80.6 °F - - N/A% 29.95 in 9.0 mi Calm Calm - N/A   Partly Cloudy
9:55 AM 84.2 °F 92.3 °F 75.2 °F 74% 29.96 in 7.0 mi WSW 3.5 mph - N/A   Partly Cloudy
10:15 AM 87.8 °F 95.6 °F 73.4 °F 62% 29.97 in 7.0 mi Calm Calm - N/A   Clear
10:35 AM 87.8 °F 95.6 °F 73.4 °F 62% 29.97 in 8.0 mi West 4.6 mph - N/A   Partly Cloudy
10:55 AM 89.6 °F 98.2 °F 73.4 °F 59% 29.97 in 9.0 mi West 3.5 mph - N/A   Clear
11:15 AM 91.4 °F 100.1 °F 73.4 °F 55% 29.97 in 8.0 mi Calm Calm - N/A   Clear
11:35 AM 91.4 °F 100.1 °F 73.4 °F 55% 29.97 in 10.0 mi NW 3.5 mph - N/A   Clear
11:55 AM 89.6 °F 96.2 °F 71.6 °F 55% 29.97 in 8.0 mi West 3.5 mph - N/A   Clear
12:15 PM 91.4 °F 98.4 °F 71.6 °F 52% 29.96 in 9.0 mi West 5.8 mph - N/A   Clear
12:35 PM 93.2 °F 100.5 °F 71.6 °F 49% 29.96 in 9.0 mi NW 4.6 mph - N/A   Clear
12:55 PM 93.2 °F 98.8 °F 69.8 °F 46% 29.96 in 10.0 mi West 6.9 mph - N/A   Clear
1:15 PM 93.2 °F 98.8 °F 69.8 °F 46% 29.94 in 9.0 mi WNW 6.9 mph - N/A   Clear
1:35 PM 95.0 °F 101.3 °F 69.8 °F 44% 29.94 in 10.0 mi West 5.8 mph - N/A   Clear
2:15 PM 93.2 °F 98.8 °F 69.8 °F 46% 29.92 in 9.0 mi West 5.8 mph - N/A   Clear
2:35 PM 93.2 °F 98.8 °F 69.8 °F 46% 29.91 in 9.0 mi West 3.5 mph - N/A   Partly Cloudy
2:55 PM 95.0 °F 99.5 °F 68.0 °F 41% 29.90 in 10.0 mi WNW 3.5 mph - N/A   Partly Cloudy
3:15 PM 96.8 °F 103.1 °F 69.8 °F 41% 29.89 in 10.0 mi West 8.1 mph - N/A   Clear
3:35 PM 95.0 °F 99.5 °F 68.0 °F 41% 29.89 in 9.0 mi WNW 6.9 mph - N/A   Clear
3:55 PM 96.8 °F 101.8 °F 68.0 °F 39% 29.89 in 10.0 mi WSW 5.8 mph - N/A   Clear
4:15 PM 95.0 °F 99.5 °F 68.0 °F 41% 29.88 in 9.0 mi West 3.5 mph - N/A   Clear
4:35 PM 96.8 °F 100.7 °F 66.2 °F 37% 29.87 in 10.0 mi NNW 5.8 mph - N/A   Partly Cloudy
4:55 PM 91.4 °F 100.1 °F 73.4 °F 55% 29.88 in 10.0 mi WNW 12.7 mph - N/A   Partly Cloudy
5:15 PM 87.8 °F 95.6 °F 73.4 °F 62% 29.88 in 10.0 mi West 8.1 mph - N/A   Partly Cloudy
5:35 PM 86.0 °F 93.4 °F 73.4 °F 66% 29.88 in 9.0 mi WNW 8.1 mph - N/A   Partly Cloudy
6:15 PM 87.8 °F 95.6 °F 73.4 °F 62% 29.88 in 10.0 mi WNW 9.2 mph - N/A   Partly Cloudy
6:35 PM 87.8 °F 95.6 °F 73.4 °F 62% 29.89 in 10.0 mi WNW 8.1 mph - N/A   Clear
6:55 PM 87.8 °F 93.8 °F 71.6 °F 58% 29.89 in 10.0 mi WNW 8.1 mph - N/A   Partly Cloudy
7:55 PM 82.4 °F 87.2 °F 71.6 °F 70% 29.91 in 10.0 mi North - - N/A   Clear
8:15 PM 82.4 °F 87.2 °F 71.6 °F 70% 29.93 in 10.0 mi Calm Calm - N/A   Partly Cloudy
8:35 PM 78.8 °F - 73.4 °F 83% 29.93 in 10.0 mi SE 8.1 mph - N/A   Partly Cloudy
8:55 PM 78.8 °F - 73.4 °F 83% 29.93 in 10.0 mi Calm Calm - N/A Thunderstorm Partly Cloudy
9:15 PM 77.0 °F - 73.4 °F 89% 29.94 in 10.0 mi Calm Calm - N/A   Mostly Cloudy
9:35 PM 77.0 °F - 73.4 °F 89% 29.96 in 10.0 mi East 4.6 mph - N/A   Scattered Clouds
9:55 PM 77.0 °F - 75.2 °F 94% 29.97 in 10.0 mi Calm Calm - N/A   Partly Cloudy
10:15 PM 77.0 °F - 75.2 °F 94% 29.97 in 10.0 mi Calm Calm - N/A   Scattered Clouds
10:35 PM 75.2 °F - 75.2 °F 100% 29.96 in 10.0 mi Calm Calm - N/A   Scattered Clouds
10:55 PM 75.2 °F - 75.2 °F 100% 29.96 in 10.0 mi Calm Calm - N/A   Partly Cloudy
11:15 PM 75.2 °F - 75.2 °F 100% 29.96 in 10.0 mi Calm Calm - N/A   Partly Cloudy
11:35 PM 75.2 °F - 75.2 °F 100% 29.96 in 10.0 mi Calm Calm - N/A   Clear
11:55 PM 73.4 °F - 73.4 °F 100% 29.96 in 10.0 mi Calm Calm - N/A   Partly Cloudy